Location: Peterborough
(44.3091°N, 78.3197°W)
Time: 04:10:42
(UTC-04:00)

Tiros 1 - Pass Details

Date: 10 April 2023
Orbit: 627 x 661 km, 48.4° (Epoch: 09 June)

Event Time Altitude Azimuth Distance (km) Brightness Sun altitude
Rises 23:36:51 0° 216° (SW) 2,928 - -33.0°
Reaches altitude 10° 23:39:18 10° 208° (SSW) 2,029 - -33.3°
Maximum altitude 23:43:33 35° 143° (SE) 1,040 - -33.6°
Drops below altitude 10° 23:47:52 10° 77° (ENE) 2,058 - -34.0°
Sets 23:50:22 0° 69° (ENE) 2,977 - -34.2°
